Wind_Speed
65 62 57 54 57 59 62 60 55 56 50 48 38 35 35 35 38 37 34 32 32 35 34 34 33 35 26 30 28 27 21 16 15 12 8 8 13 11 10 15 15 15 12
70 66 61 55 55 57 65 63 60 54 55 48 41 35 35 36 37 39 36 31 34 38 40 35 38 34 29 32 39 35 28 21 17 15 12 8 7 13 14 16 18 16 17
75 70 65 65 65 62 61 64 60 53 56 51 43 38 38 35 37 41 37 30 35 38 39 37 22 32 35 34 45 36 30 30 25 19 15 14 12 15 17 17 16 17 20
77 73 71 73 70 70 68 65 62 55 52 53 47 39 39 36 39 41 36 31 29 39 48 43 43 37 39 44 48 38 36 40 39 28 18 19 18 18 20 21 17 17 18
79 80 81 79 76 76 73 68 62 57 52 52 48 41 40 40 38 42 39 38 35 44 48 46 56 49 43 44 46 31 34 36 36 36 24 18 21 22 26 28 22 16 20
82 82 83 86 84 79 75 71 58 56 49 52 49 43 40 40 40 40 39 41 38 45 52 53 52 53 53 44 38 38 32 32 34 37 37 30 26 26 29 30 28 26 27
87 87 91 90 84 80 78 71 60 57 50 57 48 41 39 38 39 39 35 37 40 48 57 56 51 52 56 49 41 40 40 37 37 37 34 36 33 34 31 33 36 27 30
94 92 89 88 83 82 74 63 60 56 50 56 46 39 37 37 37 39 35 37 38 57 63 56 44 51 55 52 48 46 43 41 39 39 36 28 29 28 30 32 26 33 32
93 91 92 86 79 67 54 50 52 53 53 52 47 39 36 35 35 38 36 34 45 58 65 64 47 62 65 61 50 49 47 46 44 39 37 33 27 28 30 30 30 32 26
86 89 85 74 65 45 39 49 52 52 52 50 46 41 38 36 37 33 30 39 52 60 65 61 57 60 73 65 54 60 55 50 44 43 43 37 30 29 30 34 38 36 36
74 62 59 55 51 38 42 40 34 44 48 47 47 43 42 38 37 35 32 46 52 62 67 73 70 61 63 71 72 67 56 55 50 47 41 38 41 37 40 35 41 41 45
55 51 52 49 44 44 45 42 33 44 49 47 45 44 42 41 43 42 34 45 57 63 69 71 76 74 74 71 70 73 58 58 58 50 53 49 47 41 42 43 45 49 49
51 48 47 47 46 50 52 51 49 53 51 47 45 43 42 41 38 36 36 44 56 63 71 73 77 74 77 78 77 75 70 64 63 59 51 51 50 49 49 52 53 53 54
39 39 42 47 50 56 58 53 48 48 48 49 46 44 42 41 42 39 33 45 60 69 74 77 79 75 75 74 71 67 66 69 70 70 58 61 62 53 53 54 58 54 52
35 34 40 45 54 50 47 46 43 44 51 52 46 40 44 44 41 42 44 38 60 71 79 80 80 82 76 73 70 70 68 67 65 71 65 66 69 60 55 58 47 50 52
33 37 39 48 59 50 50 44 45 49 51 45 39 42 40 45 47 49 49 45 40 64 81 81 81 83 84 82 76 71 71 71 72 71 69 65 67 66 62 60 59 60 59
34 39 48 51 56 53 52 38 43 33 39 43 44 47 50 53 55 55 57 52 48 52 70 86 86 81 78 78 80 77 74 70 70 61 68 66 66 68 68 67 70 67 65
33 39 52 48 53 51 47 22 21 31 43 45 57 55 56 55 60 63 58 57 56 57 58 79 84 81 82 72 70 71 75 79 68 68 69 67 68 70 70 70 68 65 59
41 43 49 55 54 50 53 34 34 44 42 49 51 53 56 59 60 62 65 65 62 57 57 62 73 76 72 68 64 62 59 59 71 66 62 67 69 69 68 70 67 65 65
29 33 46 53 55 48 50 54 45 43 52 51 50 47 54 58 65 65 63 59 51 51 61 57 55 63 68 73 74 74 71 68 63 57 56 62 66 64 64 65 64 66 67
38 42 51 55 55 53 48 49 50 45 37 41 44 53 61 59 49 45 43 42 44 45 54 58 55 59 57 64 70 70 70 72 66 59 57 60 59 58 61 63 64 66 67
46 48 51 52 52 53 56 47 50 57 44 46 51 42 27 24 27 31 37 38 46 47 49 58 69 67 67 64 61 62 63 61 62 61 64 65 62 64 62 64 66 70 76
49 45 49 51 49 48 54 52 51 43 48 44 38 29 26 26 27 31 32 34 38 44 51 58 63 69 70 78 80 72 63 64 63 67 68 64 69 72 72 75 76 76 77
53 48 51 51 48 49 49 40 41 38 39 35 37 34 32 31 29 31 33 33 36 40 43 42 50 52 53 58 58 74 72 71 72 72 72 74 75 74 73 74 75 72 71
53 44 46 50 50 50 51 51 49 47 44 41 42 39 39 37 36 34 34 37 29 33 39 35 29 31 36 36 35 46 56 56 60 63 67 70 71 70 72 74 74 76 71
54 47 48 46 55 52 51 47 51 54 48 42 43 43 39 38 39 39 39 39 35 43 36 42 41 37 40 36 39 48 52 52 56 59 62 64 65 72 73 68 64 64 66
Wind_Direction
293 294 293 290 281 279 283 284 282 279 274 273 260 260 251 247 255 254 247 242 233 221 211 210 227 226 228 245 259 246 234 240 254 262 297 305 277 293 327 314 311 303 294
290 291 291 286 283 280 286 287 283 275 277 269 255 252 249 251 252 248 248 246 238 211 209 211 224 230 239 250 262 255 245 237 248 257 274 274 300 291 299 314 310 296 287
287 287 285 286 286 290 284 286 286 273 269 263 251 244 241 245 248 245 244 242 238 212 209 206 218 222 240 255 254 254 240 243 239 255 255 269 277 280 291 307 300 302 290
285 285 283 284 285 291 286 284 280 272 265 256 249 242 235 243 244 245 246 232 236 218 208 210 215 231 231 244 248 251 251 252 249 248 248 254 261 279 282 286 288 291 290
282 282 284 284 286 287 285 285 276 266 263 253 244 238 231 239 247 248 248 245 232 220 206 212 212 206 233 239 245 247 250 244 237 241 252 257 273 273 279 285 283 290 297
280 282 281 281 282 282 280 278 268 260 256 243 237 233 233 237 243 249 249 250 240 228 208 208 205 211 216 233 239 241 243 242 242 244 246 260 272 280 287 283 285 291 303
280 280 279 280 279 280 278 275 263 256 248 238 234 231 231 237 240 242 251 256 251 213 202 201 210 217 220 228 235 240 245 250 248 248 246 258 257 275 283 296 295 296 297
279 279 278 278 280 278 276 266 256 247 237 233 227 227 230 236 243 242 252 264 227 198 197 201 218 225 225 230 235 247 242 251 245 245 246 256 261 271 285 292 295 298 288
277 277 277 280 276 272 265 250 243 239 232 226 220 224 229 234 241 244 249 246 206 197 197 206 222 230 233 226 236 245 247 254 257 245 246 246 265 273 277 287 287 290 285
274 276 274 270 265 256 238 234 233 233 227 217 213 218 224 234 241 245 241 221 204 202 199 197 211 225 234 236 234 239 245 250 257 241 245 248 261 260 270 284 292 282 279
272 264 259 252 250 236 223 222 229 232 223 213 215 214 221 229 236 245 247 215 209 208 206 207 215 224 229 229 231 237 241 246 254 245 247 251 258 278 285 280 286 279 279
269 262 254 245 238 217 205 196 198 220 222 217 218 216 223 228 237 250 226 211 214 212 213 213 219 229 234 231 235 237 240 240 250 255 253 257 264 274 283 278 284 285 281
267 255 243 229 215 202 195 197 195 205 216 224 217 217 224 232 233 233 228 212 211 217 214 216 220 227 231 234 234 236 242 242 249 253 253 258 267 272 270 275 283 286 284
253 239 225 213 205 193 195 201 194 200 215 222 218 219 227 238 239 237 235 214 212 218 219 219 221 227 235 235 236 238 238 240 246 249 254 265 264 270 275 279 285 280 278
244 229 209 205 189 195 197 197 195 203 215 221 227 232 237 244 235 238 229 224 221 216 219 222 226 228 232 240 242 244 243 244 242 246 250 262 261 267 274 277 266 268 271
227 210 197 190 185 196 196 195 203 211 221 232 229 236 241 246 241 239 240 243 258 225 223 223 226 232 234 236 240 244 249 252 249 242 254 253 266 266 269 270 269 270 272
210 202 189 187 196 190 189 204 211 226 235 236 234 239 244 249 250 255 252 258 258 251 232 227 226 229 234 238 241 243 249 249 253 252 254 257 259 262 265 269 270 272 277
200 204 195 193 191 190 186 169 214 223 232 236 238 246 249 252 256 258 261 260 264 262 242 221 224 229 234 240 244 246 252 252 257 255 256 256 259 263 267 265 268 269 271
196 200 197 189 190 187 190 187 190 220 229 238 244 247 250 252 257 258 261 265 265 257 226 221 227 226 231 233 235 239 242 247 250 252 256 258 259 261 264 263 268 261 270
183 198 198 191 190 194 193 200 210 213 232 245 252 254 256 259 260 262 259 257 252 234 220 225 229 233 235 236 236 244 250 251 252 254 253 256 258 261 266 263 261 264 265
184 184 189 198 199 203 209 209 216 224 241 253 259 257 260 261 255 251 246 237 229 229 227 231 231 233 233 234 238 242 247 250 249 250 249 253 254 256 257 263 263 268 269
203 201 193 197 202 210 211 222 226 231 240 262 268 262 249 245 242 240 236 235 232 233 233 237 235 239 238 240 237 239 239 240 237 242 245 249 252 255 256 258 262 265 272
207 206 207 202 207 213 220 228 236 243 248 257 251 241 234 236 245 243 239 239 240 241 241 243 242 244 244 246 244 247 246 240 241 244 245 250 255 257 261 264 268 271 272
205 209 207 207 215 223 226 229 238 241 248 248 246 238 241 244 246 249 244 242 244 245 246 247 251 251 247 248 249 245 251 254 249 250 250 252 256 259 264 266 267 269 272
206 209 220 218 219 221 225 229 235 247 242 248 250 240 246 247 249 252 257 246 242 247 250 249 265 239 231 234 241 243 244 245 246 249 254 257 259 260 261 265 270 274 273
209 219 217 220 223 221 225 232 238 244 251 254 248 237 239 256 259 250 250 256 243 239 238 254 256 241 234 240 244 243 243 242 248 250 252 256 261 262 266 269 272 270 271
Height
10686 10687 10687 10686 10683 10683 10683 10686 10688 10683 10685 10687 10689 10689 10691 10694 10699 10702 10708 10714 10720 10724 10726 10731 10734 10735 10737 10739 10741 10741 10742 10744 10744 10744 10743 10742 10741 10740 10737 10736 10735 10733 10731
10670 10673 10673 10673 10674 10674 10672 10674 10676 10677 10674 10677 10680 10679 10683 10685 10688 10692 10699 10706 10710 10715 10719 10725 10727 10731 10733 10736 10735 10736 10738 10739 10740 10741 10739 10739 10738 10738 10736 10735 10733 10730 10728
10653 10653 10656 10658 10659 10664 10661 10660 10660 10664 10663 10667 10669 10669 10673 10676 10679 10683 10691 10697 10701 10707 10713 10720 10721 10726 10725 10728 10726 10729 10732 10733 10735 10736 10735 10735 10734 10734 10733 10731 10730 10727 10726
10637 10636 10639 10640 10643 10647 10647 10648 10649 10649 10652 10655 10660 10661 10662 10666 10670 10674 10681 10688 10690 10698 10705 10713 10714 10713 10714 10715 10720 10723 10725 10727 10730 10731 10730 10731 10731 10729 10728 10727 10725 10723 10722
10626 10625 10622 10621 10626 10630 10631 10633 10634 10636 10638 10644 10650 10651 10653 10657 10660 10664 10670 10676 10680 10688 10696 10701 10707 10706 10704 10706 10712 10716 10718 10719 10722 10725 10726 10725 10725 10725 10724 10723 10721 10720 10719
10609 10609 10606 10607 10607 10612 10614 10616 10619 10622 10627 10630 10637 10639 10643 10647 10651 10655 10660 10663 10668 10674 10686 10691 10697 10700 10702 10702 10704 10709 10712 10714 10717 10718 10719 10719 10720 10720 10718 10717 10716 10716 10715
10589 10590 10585 10587 10589 10592 10595 10599 10602 10607 10614 10617 10627 10630 10635 10639 10643 10647 10650 10652 10654 10660 10673 10682 10689 10691 10692 10693 10696 10703 10706 10709 10710 10711 10712 10713 10713 10714 10714 10712 10711 10711 10710
10565 10565 10564 10565 10567 10570 10575 10580 10584 10591 10598 10605 10615 10621 10626 10630 10634 10638 10643 10642 10644 10653 10665 10674 10676 10680 10682 10685 10690 10696 10699 10702 10703 10703 10705 10706 10707 10707 10708 10707 10706 10706 10704
10545 10548 10547 10543 10545 10549 10556 10564 10568 10575 10583 10593 10603 10611 10615 10621 10626 10630 10634 10636 10639 10648 10657 10666 10669 10669 10670 10675 10683 10688 10691 10695 10695 10696 10698 10699 10700 10701 10701 10701 10700 10700 10698
10525 10525 10525 10525 10525 10535 10542 10549 10557 10563 10572 10582 10590 10597 10604 10613 10617 10621 10624 10628 10634 10641 10647 10656 10656 10658 10657 10670 10674 10680 10683 10686 10687 10688 10690 10691 10692 10693 10693 10695 10695 10694 10693
10497 10498 10501 10506 10512 10522 10528 10541 10551 10559 10565 10572 10579 10584 10591 10600 10607 10612 10617 10621 10627 10634 10640 10644 10646 10650 10655 10659 10662 10667 10673 10677 10679 10681 10682 10684 10684 10685 10685 10686 10687 10687 10686
10475 10479 10482 10491 10499 10507 10517 10523 10534 10553 10562 10566 10570 10575 10582 10589 10596 10603 10608 10613 10619 10626 10632 10637 10640 10641 10644 10647 10651 10657 10663 10669 10671 10674 10674 10676 10677 10677 10677 10676 10678 10678 10677
10459 10461 10467 10474 10483 10493 10504 10510 10516 10534 10552 10560 10563 10566 10573 10580 10586 10592 10597 10601 10607 10616 10622 10626 10628 10629 10630 10636 10642 10649 10654 10659 10661 10664 10666 10667 10668 10668 10669 10668 10667 10668 10667
10446 10449 10457 10463 10475 10481 10493 10506 10514 10526 10542 10553 10553 10557 10564 10572 10576 10582 10586 10590 10598 10605 10611 10612 10613 10619 10620 10625 10633 10640 10644 10649 10652 10653 10656 10658 10658 10659 10659 10659 10657 10656 10655
10436 10442 10447 10457 10473 10484 10496 10506 10514 10525 10537 10542 10545 10549 10557 10563 10567 10572 10576 10583 10588 10592 10596 10598 10603 10607 10610 10615 10621 10628 10632 10634 10639 10641 10645 10647 10648 10649 10649 10650 10650 10646 10646
10433 10438 10444 10455 10469 10479 10491 10504 10512 10521 10529 10534 10536 10542 10548 10552 10556 10560 10564 10569 10576 10581 10583 10587 10589 10592 10598 10604 10609 10616 10619 10622 10625 10630 10634 10634 10637 10638 10638 10639 10638 10637 10637
10437 10438 10444 10456 10463 10473 10485 10497 10504 10510 10520 10523 10525 10530 10535 10540 10544 10547 10550 10554 10560 10565 10568 10572 10575 10579 10584 10590 10597 10602 10605 10608 10610 10618 10621 10623 10624 10626 10628 10628 10627 10626 10625
10438 10444 10445 10452 10461 10469 10479 10488 10495 10502 10507 10511 10513 10517 10521 10528 10531 10532 10534 10537 10541 10544 10546 10553 10559 10567 10573 10578 10583 10587 10590 10597 10602 10602 10608 10609 10612 10615 10616 10615 10616 10615 10614
10431 10439 10445 10450 10457 10464 10471 10474 10478 10488 10496 10495 10499 10504 10509 10515 10517 10518 10518 10521 10524 10526 10531 10537 10544 10554 10561 10567 10570 10572 10579 10582 10584 10589 10593 10596 10597 10599 10601 10602 10602 10603 10601
10429 10435 10442 10447 10453 10459 10464 10468 10472 10478 10482 10485 10488 10494 10499 10501 10501 10501 10502 10504 10507 10512 10518 10527 10534 10541 10547 10553 10557 10561 10564 10569 10572 10574 10578 10581 10585 10586 10587 10588 10589 10589 10588
10423 10429 10437 10443 10448 10455 10460 10464 10468 10471 10476 10481 10484 10487 10486 10484 10484 10486 10490 10493 10498 10504 10511 10517 10522 10527 10533 10539 10543 10546 10550 10554 10557 10561 10564 10566 10569 10572 10572 10573 10574 10573 10572
10415 10422 10427 10434 10443 10449 10455 10459 10464 10468 10472 10475 10476 10474 10472 10474 10477 10480 10483 10486 10492 10496 10501 10506 10510 10513 10518 10523 10529 10533 10537 10540 10543 10547 10549 10550 10553 10555 10557 10558 10558 10558 10557
10408 10416 10423 10429 10435 10442 10448 10451 10455 10460 10465 10466 10465 10465 10466 10469 10472 10474 10476 10479 10483 10486 10491 10494 10498 10501 10506 10510 10515 10519 10523 10527 10530 10531 10534 10536 10538 10541 10542 10543 10543 10542 10540
10400 10405 10414 10422 10428 10434 10437 10442 10447 10450 10453 10455 10457 10457 10459 10461 10464 10465 10468 10470 10473 10476 10479 10482 10485 10486 10489 10494 10496 10502 10508 10512 10514 10517 10520 10523 10524 10526 10526 10527 10528 10526 10525
10394 10403 10408 10414 10419 10424 10428 10431 10437 10441 10442 10446 10447 10448 10451 10453 10455 10457 10459 10461 10463 10468 10469 10472 10473 10474 10476 10480 10485 10488 10493 10498 10500 10502 10503 10506 10509 10510 10510 10511 10511 10510 10508
10388 10393 10400 10406 10410 10413 10417 10421 10426 10430 10432 10434 10436 10437 10439 10443 10446 10448 10450 10451 10453 10456 10461 10462 10465 10468 10470 10472 10475 10479 10481 10483 10486 10485 10489 10491 10493 10493 10495 10496 10494 10493 10492